Theta_e
309 309 309 312 313 314 313 312 310 309 312 313 312 310 309 310 309 308 310 312 315 321 319 316 316 319 319 320 321 321 320 320 321 322 322 324 323 326 325 326 325 323 321 320 323 324 323 324 323 325 326 325 326 327
308 307 307 307 310 313 313 313 311 309 310 313 313 311 309 308 309 309 315 313 311 318 321 315 316 317 317 318 321 320 322 320 322 322 323 324 323 324 324 320 323 320 321 324 324 324 326 325 325 325 325 326 326 326
305 305 305 305 306 310 313 313 312 309 309 312 313 312 311 309 308 308 313 312 314 319 321 319 320 316 316 316 316 322 319 319 321 321 321 322 323 322 322 323 322 322 323 325 327 326 326 326 326 325 326 326 327 326
303 303 304 304 304 307 311 313 313 311 309 311 313 313 311 310 308 308 314 312 315 317 320 319 315 316 313 313 314 317 318 319 320 322 323 323 322 322 323 323 324 323 325 326 327 327 327 326 326 326 326 326 326 326
301 301 302 302 304 306 308 310 312 312 309 310 313 313 312 310 308 309 313 311 311 317 322 321 316 314 314 315 315 316 318 321 322 323 324 324 323 323 323 323 324 323 324 326 327 326 328 327 326 326 327 328 328 328
300 301 301 302 304 306 307 308 310 312 310 309 312 313 312 311 309 311 319 314 312 311 319 322 315 315 315 317 316 318 318 320 321 322 323 323 323 324 323 324 323 323 323 323 325 325 325 325 326 326 328 329 329 329
300 300 301 303 304 305 306 307 309 311 310 309 312 313 313 311 309 314 317 313 309 311 319 321 319 317 317 318 318 319 318 320 321 322 323 323 323 323 324 325 324 324 324 324 324 325 328 327 329 328 328 328 328 328
300 300 300 302 303 303 305 307 309 311 309 310 312 313 313 308 311 316 314 313 312 315 316 320 319 320 318 322 323 320 322 321 322 323 323 324 323 324 325 326 325 323 324 323 324 325 327 328 329 329 328 327 328 328
300 300 300 300 301 302 305 308 310 311 309 311 312 311 310 313 318 318 311 312 313 315 320 318 319 325 318 322 322 322 322 323 322 323 323 323 324 328 327 326 325 322 323 325 325 327 328 329 329 329 327 328 329 329
301 301 301 301 301 303 306 308 310 310 310 312 311 314 321 315 313 312 314 318 318 317 316 317 316 321 319 321 322 322 322 324 325 325 325 327 326 326 324 324 326 325 325 325 329 330 330 329 328 326 327 327 328 328
300 301 301 301 301 303 308 310 310 310 311 313 315 318 312 309 314 316 319 321 320 321 319 319 319 322 320 324 323 323 324 323 325 327 328 329 329 328 322 323 323 324 325 327 327 328 328 328 327 327 328 327 326 326
300 301 302 302 302 305 309 310 310 312 312 311 310 309 311 315 317 319 320 320 321 323 322 323 324 322 323 321 324 325 323 323 324 325 326 327 326 322 322 322 323 325 326 327 327 328 326 326 325 327 326 326 324 323
302 302 302 302 302 308 310 310 310 311 312 309 313 317 317 316 317 320 321 322 323 323 323 323 325 323 323 323 324 325 323 324 323 324 325 330 324 322 323 323 326 326 326 328 327 325 324 323 324 324 325 324 323 322
302 301 301 301 304 309 310 310 310 311 308 316 319 313 320 320 320 320 320 322 321 321 322 322 322 323 323 324 323 322 322 322 324 325 327 324 323 323 324 325 327 325 326 328 328 324 323 323 323 322 322 321 320 320
303 300 301 302 306 309 310 310 311 309 310 316 318 320 322 320 319 319 319 319 319 319 320 321 322 322 323 323 323 323 323 323 323 325 324 321 323 326 327 327 327 327 327 326 324 324 323 321 319 318 318 318 319 319
301 301 303 304 308 310 310 310 309 307 311 314 316 320 320 320 320 319 319 320 318 319 319 320 322 322 322 322 323 323 321 322 321 322 321 321 324 327 327 328 328 327 326 324 323 322 320 319 318 317 317 318 318 319
303 304 307 308 309 309 309 308 306 310 312 316 317 317 319 319 320 319 319 318 317 320 321 320 321 321 321 321 321 321 322 321 321 320 320 322 325 327 327 327 327 326 324 322 322 320 318 317 317 317 318 318 319 321
305 307 308 308 309 308 307 308 310 311 315 316 318 318 318 318 318 318 318 317 318 319 320 320 320 321 320 320 321 319 320 320 320 320 320 324 327 325 326 327 326 324 323 322 319 317 316 316 316 317 316 315 318 317
304 306 307 308 308 308 309 309 309 313 315 316 316 316 317 317 316 316 316 316 316 317 318 320 321 322 321 321 320 320 320 320 320 321 321 323 323 324 325 324 324 324 323 320 319 316 315 315 316 314 313 313 315 313
302 304 306 307 308 308 310 309 307 312 315 316 315 316 316 316 316 316 316 316 317 318 318 319 320 320 320 320 320 320 319 320 320 322 325 322 320 324 324 323 323 323 322 319 318 316 315 315 315 313 312 311 311 311
301 303 305 306 307 307 309 310 311 311 314 315 315 315 316 316 317 317 317 317 318 319 319 319 319 319 319 318 318 318 319 319 321 327 323 324 324 324 319 320 321 321 322 321 318 316 315 315 315 313 312 311 310 310
305 306 306 307 307 307 308 308 311 311 314 315 315 315 316 317 318 319 318 319 319 318 318 319 319 319 319 320 320 319 319 321 324 323 321 324 321 319 318 316 319 321 321 320 319 318 318 317 316 313 312 311 311 309
305 306 306 306 308 308 309 310 312 312 315 315 315 316 317 318 318 317 320 320 320 319 318 319 319 318 319 319 320 320 321 324 325 323 323 320 316 315 314 314 314 315 316 315 313 312 313 313 313 314 312 311 311 309
305 306 308 309 309 310 310 313 313 313 314 314 314 315 316 317 319 320 322 321 321 320 321 322 320 321 321 321 321 323 324 324 322 321 320 315 315 315 314 314 314 313 313 313 312 311 311 311 311 311 311 311 311 311
307 308 308 308 309 311 312 313 313 313 313 314 315 315 317 317 320 321 320 321 322 323 324 324 322 322 322 322 323 322 325 324 321 321 317 315 315 315 315 315 315 314 314 314 313 313 313 312 311 311 311 311 311 311
311 307 308 310 312 311 312 313 313 313 312 314 315 317 318 320 321 321 320 321 322 324 324 323 323 323 323 321 322 325 325 323 317 319 315 315 315 316 316 316 316 315 315 315 314 314 314 313 313 313 313 312 311 311
309 310 310 309 310 311 313 313 314 316 316 316 317 319 320 322 320 321 322 324 323 323 323 322 322 321 321 320 322 324 324 320 316 318 318 316 315 316 316 317 317 316 315 315 315 315 315 315 314 314 313 313 313 312
310 311 312 312 311 312 313 315 315 316 316 316 318 320 321 320 322 321 322 323 324 324 323 322 322 320 320 319 321 324 320 320 316 320 320 317 315 315 316 317 318 315 316 317 317 315 315 316 316 316 315 314 313 313
309 309 310 312 311 311 311 313 315 316 317 318 318 320 319 319 318 319 320 321 322 323 322 322 322 322 321 319 322 323 321 321 322 322 318 317 317 318 318 320 320 319 319 318 317 316 317 316 316 315 315 315 314 314
309 308 309 310 312 313 313 313 314 314 315 315 315 317 318 318 317 317 318 320 320 319 319 319 320 319 318 318 319 324 324 322 321 321 318 318 318 318 318 319 318 318 318 318 317 316 314 315 316 315 313 313 313 312
309 310 312 313 313 313 313 313 313 314 313 316 316 316 318 318 317 317 317 317 317 317 317 318 317 317 318 318 319 321 324 322 320 320 318 317 318 318 318 316 317 318 317 316 316 315 315 315 314 313 313 312 312 312
310 311 311 312 314 314 314 315 316 316 316 317 317 317 318 318 318 317 317 316 317 317 317 316 317 317 316 316 316 321 320 321 323 323 322 321 320 319 318 317 316 318 317 315 315 315 315 315 314 313 313 311 311 311
310 311 311 312 315 316 316 316 317 317 317 318 318 318 318 318 318 318 319 318 316 316 316 316 316 316 316 316 318 322 321 322 323 324 322 319 318 318 317 317 318 318 318 316 316 316 316 315 314 313 312 311 310 310
Wind_Speed
14 14 18 17 15 14 15 15 15 15 16 18 18 18 19 20 22 14 4 12 6 3 1 2 2 1 2 3 3 4 4 4 3 4 3 2 4 2 5 1 3 4 4 6 3 5 8 6 10 9 15 16 14 15
14 15 17 17 15 14 13 13 14 13 14 15 16 17 17 17 19 15 5 10 6 5 5 2 3 4 3 4 2 2 4 1 2 2 3 1 4 3 3 5 5 4 3 6 5 5 12 10 9 11 14 16 17 18
15 15 15 15 16 14 12 12 12 12 12 13 14 15 15 15 17 16 6 11 4 3 4 4 3 2 2 9 6 3 1 2 2 3 2 2 4 3 5 4 5 5 5 6 7 5 6 12 12 12 15 16 17 18
16 17 17 15 15 15 13 11 11 11 11 12 13 14 14 14 14 13 5 9 5 4 4 5 3 1 2 4 7 8 0 3 3 3 2 3 3 1 3 3 7 7 2 7 10 13 12 12 17 17 19 20 21 21
13 14 14 15 13 12 12 11 11 11 11 10 11 12 13 14 13 9 2 3 6 6 4 2 2 2 1 1 6 12 7 4 3 3 4 4 1 3 6 4 8 7 7 7 10 15 14 17 20 22 22 21 20 22
14 13 14 12 12 11 11 11 12 11 11 10 11 11 12 13 13 4 4 2 4 7 3 2 2 3 0 2 7 9 10 4 4 4 4 2 1 5 5 8 8 9 10 8 13 14 18 21 21 22 20 22 22 22
14 13 11 11 11 11 10 10 11 11 11 10 11 12 12 13 10 5 4 2 5 5 3 3 2 4 2 4 5 5 7 4 5 6 6 8 6 4 8 12 11 5 6 11 14 16 19 21 20 22 22 24 27 27
14 14 12 11 11 11 10 10 9 11 10 10 11 12 14 10 1 2 1 2 1 4 3 3 2 4 2 4 4 3 4 4 5 6 2 6 3 4 5 0 3 8 11 13 14 17 20 20 21 20 24 21 21 17
14 13 14 13 13 13 9 9 9 10 9 10 12 12 2 2 3 2 0 2 2 3 3 2 3 3 1 2 1 4 3 5 2 5 4 2 5 5 2 3 8 11 14 16 18 18 20 21 20 21 21 21 17 19
12 13 14 14 12 10 8 8 8 9 8 10 4 4 3 2 1 1 2 3 4 3 3 3 0 2 3 2 3 2 2 2 4 2 1 5 6 1 2 6 7 12 16 16 19 20 20 19 17 21 21 19 18 19
11 12 15 15 12 9 8 7 6 6 4 2 2 1 2 1 3 3 2 3 2 3 4 2 2 1 2 3 1 0 2 1 3 3 3 3 2 3 5 8 11 14 15 15 17 18 16 14 16 20 20 21 17 19
11 14 14 13 11 8 6 6 5 2 1 1 3 3 2 3 3 3 3 2 4 1 4 3 3 2 2 2 3 3 3 2 4 2 3 3 5 6 10 13 15 16 16 17 20 17 21 21 23 18 15 17 18 19
13 15 13 11 9 6 6 7 7 5 2 2 3 3 2 3 1 5 6 4 3 5 5 5 4 2 3 4 3 3 4 3 1 3 3 2 5 9 12 13 15 18 22 19 18 23 23 24 26 21 15 23 22 19
15 11 12 11 8 6 6 7 7 4 2 3 4 2 5 5 4 3 3 2 5 2 3 3 3 3 2 3 2 4 0 2 3 3 2 4 9 12 12 13 14 17 16 16 18 21 21 21 23 26 22 18 20 20
12 10 9 11 8 7 8 9 8 5 2 3 3 4 6 3 1 1 1 2 3 1 2 3 3 3 4 3 3 2 3 4 3 4 4 8 10 11 13 14 13 15 13 16 20 15 20 21 19 20 22 22 21 21
7 5 9 6 6 8 10 10 6 3 3 3 4 4 4 4 5 5 5 3 2 2 1 3 3 3 5 3 4 5 3 4 3 5 8 10 10 11 11 13 14 16 18 18 20 19 19 18 18 21 23 19 19 19
5 4 2 7 7 11 14 5 4 3 2 3 4 6 6 3 2 2 2 1 2 5 3 2 4 4 1 4 3 3 5 6 8 8 8 9 9 10 11 14 15 16 16 18 20 20 18 19 20 18 13 21 22 19
4 3 2 9 12 14 4 2 2 2 5 5 5 4 5 4 3 3 3 3 3 3 3 2 3 7 5 6 8 4 5 5 6 8 8 8 10 16 17 12 15 14 13 18 17 17 18 18 14 11 18 20 17 19
6 3 4 5 9 4 3 3 3 3 6 4 6 6 5 5 6 9 6 7 7 6 3 4 6 8 9 9 8 7 5 7 7 8 6 8 14 20 13 13 12 12 12 14 15 16 17 18 16 17 18 17 14 18
11 10 10 9 8 1 2 2 2 4 3 1 4 5 5 7 6 6 7 8 7 5 6 6 10 10 7 6 3 5 6 6 7 7 7 10 11 15 11 11 11 11 9 14 15 19 18 18 21 19 21 20 17 19
8 12 10 12 8 4 2 2 5 3 3 4 2 4 5 5 7 8 8 7 8 6 9 10 10 10 13 11 11 8 9 9 5 4 3 6 13 10 9 9 10 10 11 11 13 15 17 16 17 19 20 21 23 22
5 9 6 6 2 6 2 5 2 2 3 4 4 5 5 6 6 6 4 7 6 10 11 9 9 8 8 9 11 11 8 3 4 5 6 7 5 5 7 10 9 10 12 11 13 11 15 16 16 21 21 19 22 28
5 6 4 3 3 3 3 5 5 4 3 2 2 3 4 3 2 3 4 7 7 7 8 9 10 12 10 9 6 8 7 6 10 5 2 2 4 7 10 12 13 12 12 14 16 17 18 18 20 21 23 23 24 24
4 4 4 4 5 5 4 5 4 3 3 3 3 4 5 3 4 3 4 3 3 2 4 5 7 5 6 6 6 8 8 10 13 7 3 5 7 9 11 12 11 14 15 16 17 19 20 20 19 21 22 23 24 24
3 4 3 4 3 4 4 5 5 4 4 6 3 4 4 4 4 3 5 4 4 2 3 5 5 5 6 7 6 7 9 17 14 6 8 7 10 10 9 10 10 12 14 15 16 17 17 19 21 22 23 23 23 22
4 5 5 7 5 4 5 3 6 7 4 3 5 4 2 4 4 4 5 4 2 2 3 5 6 5 4 7 6 8 10 11 15 8 12 12 9 8 7 5 6 7 6 9 11 13 14 15 16 16 16 17 17 21
3 4 4 3 2 4 4 4 2 1 4 4 3 2 3 4 4 1 2 2 2 3 5 6 6 7 8 9 11 14 14 14 19 12 8 9 7 5 2 2 3 5 2 3 5 6 8 9 10 12 13 13 14 16
3 4 5 8 6 4 4 2 4 6 4 2 2 4 3 2 2 2 3 3 4 5 8 8 6 7 9 10 14 18 15 11 12 8 4 7 7 6 5 4 3 5 6 4 2 2 3 6 8 9 8 8 10 10
3 2 2 4 3 4 4 4 3 4 2 1 3 3 1 2 1 2 4 4 4 5 10 9 8 7 7 8 11 16 17 14 11 12 15 9 9 10 8 4 2 3 3 4 4 6 5 4 7 9 7 6 6 6
4 5 3 4 4 6 6 6 5 3 4 7 5 6 3 2 1 3 2 4 5 6 7 8 12 9 8 9 11 11 14 14 9 12 11 10 10 7 6 2 1 1 2 2 5 5 4 2 3 1 6 8 6 8
2 5 4 4 4 7 9 7 11 8 6 7 6 7 7 5 7 7 7 9 10 10 8 8 9 8 7 7 8 12 9 13 9 10 16 16 8 8 4 1 0 2 4 4 5 6 5 4 6 8 10 10 8 8
4 5 3 3 4 6 7 6 5 7 8 9 10 8 6 4 7 5 8 10 11 12 13 14 13 12 10 11 9 13 10 11 14 14 12 12 12 8 6 5 4 2 3 5 4 5 4 3 6 7 8 9 8 9
5 5 7 5 5 4 6 5 5 4 7 7 7 7 8 8 10 5 2 7 10 12 11 10 10 12 8 10 10 12 9 7 10 14 14 13 12 10 7 5 3 4 5 2 3 5 3 4 5 5 6 7 7 6
Wind_Direction
313 319 316 313 315 322 328 335 340 346 353 357 359 2 4 8 12 17 349 9 354 309 75 262 207 198 182 245 265 101 209 189 205 242 267 169 261 144 262 41 291 269 293 270 258 267 256 25 334 334 332 316 319 316
309 308 318 316 311 312 316 324 331 337 345 351 354 356 359 3 8 16 348 349 339 258 9 271 261 281 306 3 322 162 5 5 26 263 224 272 221 206 314 271 157 262 277 319 288 320 341 329 302 308 306 302 300 300
298 301 307 315 316 311 306 313 321 328 334 342 348 352 352 357 3 8 337 348 319 277 189 220 152 131 224 237 273 276 128 67 157 344 337 341 260 282 258 238 281 228 240 254 300 178 311 323 308 301 301 300 300 303
296 298 296 302 305 303 306 303 312 318 324 332 341 345 345 348 356 5 354 347 333 298 290 106 134 244 260 252 261 226 38 142 123 236 245 248 268 202 282 319 280 297 301 266 270 270 281 301 322 312 308 303 299 295
306 305 304 302 310 307 312 310 309 309 313 321 331 336 339 338 347 351 317 5 15 335 327 335 298 113 206 207 210 195 197 203 204 203 224 239 307 265 239 288 265 246 262 269 287 313 301 300 310 312 308 302 301 293
319 312 311 309 304 298 305 308 306 303 304 310 320 325 329 330 342 310 213 218 357 359 283 281 72 176 246 250 194 192 212 231 247 254 255 258 0 275 270 275 288 273 266 281 278 293 293 294 300 299 306 307 302 300
320 316 310 304 300 297 296 303 302 298 298 303 311 314 317 320 323 279 353 39 325 330 271 274 185 135 184 178 161 185 204 227 246 245 250 265 262 197 275 275 297 329 323 295 300 296 292 297 305 308 301 303 304 302
316 322 306 293 293 297 287 291 295 296 294 300 306 309 311 308 321 191 16 307 332 283 262 273 184 181 198 188 172 187 192 206 204 260 245 255 210 236 263 69 316 312 305 303 308 306 299 296 300 302 311 311 303 306
315 318 321 308 287 293 283 281 286 291 291 302 308 310 282 207 222 73 153 320 266 277 284 246 267 112 173 159 134 181 237 245 93 255 242 259 225 227 276 316 307 313 309 314 310 301 304 306 308 310 312 303 301 296
306 309 314 315 296 287 274 273 279 286 294 310 312 233 191 105 155 14 211 206 197 184 226 261 46 182 262 175 164 263 204 285 272 126 115 233 252 213 240 287 282 291 301 306 304 308 313 306 297 302 300 296 300 302
296 306 309 309 283 284 281 264 273 301 310 252 238 341 39 281 230 219 242 239 162 218 190 224 244 296 130 276 9 260 341 273 262 113 260 218 210 178 324 301 309 318 308 302 304 303 311 301 299 294 303 309 311 301
298 304 303 294 279 280 276 249 239 229 294 301 307 291 262 225 219 244 213 180 224 202 168 203 140 229 123 273 261 160 273 212 260 83 257 247 86 348 330 327 324 322 322 313 313 317 308 303 302 305 298 306 305 302
303 301 298 276 270 268 252 229 215 216 272 259 232 228 226 169 293 226 188 183 204 173 171 183 172 210 168 222 249 236 238 238 19 230 253 48 19 339 337 328 326 326 330 325 316 312 312 306 308 308 306 304 311 302
303 295 282 261 259 238 232 206 198 214 222 240 197 265 226 187 233 208 223 91 74 188 174 229 235 220 167 205 261 249 91 265 250 247 266 351 357 337 331 328 325 328 319 314 314 320 311 315 314 312 315 309 305 300
295 284 261 251 243 217 205 189 195 187 252 245 228 232 217 252 249 196 217 233 146 310 258 192 226 251 175 230 214 292 226 244 246 303 331 343 342 331 328 328 326 329 319 318 321 315 326 330 327 320 319 314 311 309
290 285 251 232 215 193 184 178 170 185 239 242 232 245 211 236 199 193 195 182 119 306 213 232 234 225 221 237 202 224 251 254 334 343 337 324 349 327 329 319 329 323 321 327 327 335 328 331 331 321 319 324 322 317
244 254 257 196 180 182 173 156 166 204 258 245 231 237 270 312 319 139 172 252 316 269 231 252 228 219 107 236 241 222 253 330 338 329 332 344 332 330 314 326 319 330 333 333 339 336 338 338 334 335 338 340 336 330
253 244 242 176 173 156 160 193 174 224 244 236 244 230 208 264 265 235 217 197 255 239 248 241 288 232 238 247 251 273 294 322 326 315 328 355 343 331 328 314 331 339 341 356 345 349 348 348 345 347 346 345 352 358
235 104 172 195 167 148 171 177 208 255 239 257 255 267 256 264 252 258 265 245 240 267 267 221 240 240 245 256 272 282 305 321 335 328 320 2 354 341 320 337 337 354 344 359 5 359 350 349 357 7 1 359 4 9
248 238 222 215 213 197 153 163 229 267 262 334 263 262 243 257 260 244 234 223 206 206 212 227 240 251 256 273 265 283 311 325 315 307 354 354 341 322 336 337 355 344 35 26 17 12 6 7 14 18 22 22 20 22
252 248 222 209 198 243 275 210 209 229 265 247 265 252 259 236 239 235 227 213 210 223 237 238 248 251 258 275 287 291 296 304 305 56 359 317 337 312 341 354 357 6 31 27 17 8 11 3 11 23 29 30 31 28
227 155 126 161 158 184 250 218 256 257 239 263 245 233 265 257 249 220 214 205 232 230 234 250 258 254 246 240 254 260 290 239 120 120 349 335 337 4 15 23 15 46 48 36 31 35 33 35 39 39 38 38 45 41
199 146 129 143 171 183 237 202 217 206 256 249 229 249 232 232 212 144 229 222 247 244 237 239 240 243 251 259 256 255 212 167 131 90 14 35 52 62 60 52 52 56 60 56 51 52 53 53 54 55 56 53 55 50
190 182 154 181 203 192 193 200 201 222 234 239 255 254 253 227 167 236 258 250 185 145 197 208 208 206 194 218 214 179 157 132 119 102 159 145 112 86 77 76 68 69 67 65 62 61 59 54 52 56 55 53 51 51
152 184 188 187 206 201 207 189 192 202 239 210 237 245 231 199 220 228 230 172 194 174 164 176 189 201 198 174 135 127 142 142 140 147 176 156 130 120 103 89 75 65 69 69 65 63 63 64 61 56 50 51 55 53
227 197 205 190 166 209 194 224 199 206 210 218 236 252 226 218 226 228 186 159 177 173 175 178 165 155 135 126 137 136 125 140 140 168 160 166 161 138 125 114 107 90 70 70 70 68 64 61 58 55 55 56 54 57
222 182 197 204 198 241 233 240 133 219 192 227 258 264 233 223 213 103 110 182 234 181 162 157 166 165 126 121 122 132 140 160 154 174 174 184 167 163 157 74 74 110 131 84 66 52 53 51 51 50 51 49 46 49
256 207 200 182 194 232 288 231 217 202 203 207 271 225 229 243 83 55 68 101 112 137 146 143 134 135 126 130 145 148 143 142 154 170 169 196 207 218 239 266 279 250 253 266 281 309 3 18 19 23 28 38 44 38
235 200 229 206 209 209 229 240 219 207 153 5 335 287 259 80 136 32 94 117 147 154 146 155 163 153 143 141 154 165 166 167 170 196 198 198 199 217 221 236 265 265 259 258 255 248 271 315 356 6 11 32 47 48
225 180 210 239 219 217 229 221 252 206 153 239 268 295 279 226 296 336 243 196 205 198 191 185 164 192 176 167 158 166 190 202 228 199 188 199 194 183 162 167 172 87 65 80 114 116 126 202 247 144 45 42 45 62
190 184 231 226 246 251 265 267 267 260 248 253 259 273 278 293 292 269 243 230 230 237 235 230 223 222 234 234 192 166 188 207 196 182 195 203 205 186 155 247 264 98 62 93 104 107 125 115 67 59 50 46 48 50
188 207 214 243 257 261 240 243 218 218 226 231 241 241 238 235 254 259 229 223 227 230 229 238 248 247 220 235 219 171 185 193 197 194 186 189 193 183 178 160 168 106 91 111 120 114 95 60 62 44 63 55 65 74
201 204 219 250 235 224 204 211 201 229 217 236 235 234 237 248 261 269 218 236 252 256 242 235 231 232 209 199 166 180 184 176 172 183 179 176 177 183 184 175 145 129 142 137 100 100 84 77 93 76 62 69 65 65